El Dorado Lake Weather Center

Moon Phase Calendar



El Dorado Lake Water Level
Online Cameras

 


      

Current Conditions in El Dorado
10/24/2021 8:26:36 PM

55°F
Feels Like 55
Clear
Humidity
90%
Pressure
29.85"
Wind
0
Dew Point
53°F
UV Index
0/10 (Low)
Visibility
6 mi

Hourly Forecast

Date & Time Sun, Oct 24
8:00 PM
Sun, Oct 24
9:00 PM
Sun, Oct 24
10:00 PM
Sun, Oct 24
11:00 PM
Mon, Oct 25
12:00 AM
Mon, Oct 25
1:00 AM
Mon, Oct 25
2:00 AM
Mon, Oct 25
3:00 AM
Mon, Oct 25
4:00 AM
Mon, Oct 25
5:00 AM
Mon, Oct 25
6:00 AM
Mon, Oct 25
7:00 AM
Mon, Oct 25
8:00 AM
Mon, Oct 25
9:00 AM
Mon, Oct 25
10:00 AM
Mon, Oct 25
11:00 AM
Mon, Oct 25
12:00 PM
Mon, Oct 25
1:00 PM
Mon, Oct 25
2:00 PM
Mon, Oct 25
3:00 PM
Mon, Oct 25
4:00 PM
Mon, Oct 25
5:00 PM
Mon, Oct 25
6:00 PM
Mon, Oct 25
7:00 PM
Mon, Oct 25
8:00 PM
Mon, Oct 25
9:00 PM
Mon, Oct 25
10:00 PM
Mon, Oct 25
11:00 PM
Tue, Oct 26
12:00 AM
Tue, Oct 26
1:00 AM
Tue, Oct 26
2:00 AM
Tue, Oct 26
3:00 AM
Tue, Oct 26
4:00 AM
Tue, Oct 26
5:00 AM
Tue, Oct 26
6:00 AM
Tue, Oct 26
7:00 AM
Tue, Oct 26
8:00 AM
Tue, Oct 26
9:00 AM
Tue, Oct 26
10:00 AM
Tue, Oct 26
11:00 AM
Tue, Oct 26
12:00 PM
Tue, Oct 26
1:00 PM
Tue, Oct 26
2:00 PM
Tue, Oct 26
3:00 PM
Tue, Oct 26
4:00 PM
Tue, Oct 26
5:00 PM
Tue, Oct 26
6:00 PM
Tue, Oct 26
7:00 PM
Condition
Clear

Clear

Clear

Clear

Clear

Clear

Clear

Clouds

Clear

Clouds

Clouds

Clouds

Clear

Clear

Clear

Clear

Clear

Clouds

Clouds

Clouds

Clouds

Clouds

Clouds

Clouds

Clear

Clear

Clear

Clear

Clear

Clear

Clear

Clear

Clear

Clear

Clear

Clear

Clear

Clear

Clear

Clear

Clear

Clear

Clear

Clouds

Clouds

Clouds

Clouds

Clouds
Temperature 55°F55°F55°F54°F52°F50°F49°F48°F47°F45°F45°F44°F43°F46°F50°F54°F58°F60°F63°F65°F65°F64°F61°F57°F55°F54°F53°F53°F53°F52°F52°F51°F51°F50°F51°F51°F52°F56°F61°F65°F69°F73°F76°F78°F78°F77°F74°F72°F
Feels Like 55°F55°F54°F53°F51°F49°F45°F43°F41°F40°F40°F40°F40°F42°F46°F52°F56°F59°F61°F63°F64°F63°F60°F55°F53°F52°F52°F52°F51°F51°F50°F50°F49°F49°F49°F50°F51°F54°F59°F64°F68°F72°F76°F78°F79°F77°F74°F72°F
Cloudiness 1%1%2%2%3%3%8%13%10%13%19%16%6%6%6%6%8%14%33%19%16%13%21%18%1%2%3%2%2%2%0%0%0%0%0%0%0%0%0%0%0%0%0%24%46%37%39%46%
Visibility 6 mi6 mi6 mi6 mi6 mi6 mi6 mi6 mi6 mi6 mi6 mi6 mi6 mi6 mi6 mi6 mi6 mi6 mi6 mi6 mi6 mi6 mi6 mi6 mi6 mi6 mi6 mi6 mi6 mi6 mi6 mi6 mi6 mi6 mi6 mi6 mi6 mi6 mi6 mi6 mi6 mi6 mi6 mi6 mi6 mi6 mi6 mi6 mi
Precipitation 0%0%0%0%0%0%0%0%0%0%0%0%0%0%0%0%0%0%0%0%0%0%0%0%0%0%0%0%0%0%0%0%0%0%0%0%0%0%0%0%0%0%0%0%0%0%0%0%
Humidity 90%88%86%83%80%78%79%82%85%87%88%91%94%85%74%65%58%53%49%47%46%48%56%66%71%74%75%75%76%77%78%79%81%81%80%79%76%68%60%58%56%55%54%54%56%60%65%67%
Dew Point 53°F52°F51°F49°F46°F44°F43°F42°F42°F42°F41°F41°F41°F41°F42°F42°F43°F43°F43°F43°F44°F44°F45°F45°F45°F45°F45°F45°F45°F45°F45°F45°F45°F45°F44°F44°F44°F45°F47°F49°F53°F55°F58°F60°F61°F62°F61°F60°F
Pressure 29.85"29.85"29.85"29.88"29.91"29.94"29.97"30"30"30"30.03"30.06"30.09"30.09"30.09"30.09"30.06"30.06"30.03"30"29.97"29.97"29.97"29.97"30"30"30"30"29.97"29.94"29.94"29.94"29.91"29.91"29.91"29.88"29.85"29.85"29.83"29.8"29.74"29.71"29.65"29.62"29.59"29.59"29.59"29.59"
Wind Speed 9 mph8.6 mph10.1 mph11.1 mph10.5 mph9.7 mph10.6 mph9.5 mph11.5 mph11.7 mph9.7 mph6.8 mph4.7 mph6.7 mph8.2 mph8.7 mph7.6 mph6.4 mph6.3 mph6.9 mph8.8 mph10 mph9.7 mph8.6 mph8.8 mph10 mph11.9 mph13.8 mph15 mph15.6 mph15.6 mph14.8 mph14.5 mph14.2 mph14.4 mph15.4 mph16.8 mph18.2 mph21.6 mph21.9 mph22.6 mph23.9 mph25.1 mph25 mph23.5 mph24 mph25.3 mph25.5 mph
Wind
Direction
352°
N
353°
N
356°
N
358°
N
355°
N
354°
N
356°
N
349°
N
358°
N

N

N

N
344°
NNW
10°
N
31°
NNE
56°
NE
84°
E
106°
ESE
118°
ESE
125°
SE
119°
ESE
119°
ESE
113°
ESE
125°
SE
125°
SE
123°
ESE
126°
SE
126°
SE
127°
SE
129°
SE
131°
SE
133°
SE
132°
SE
137°
SE
137°
SE
138°
SE
142°
SE
149°
SSE
157°
SSE
167°
SSE
170°
S
172°
S
174°
S
174°
S
171°
S
166°
SSE
162°
SSE
159°
SSE

Daily Forecast

Date High Low Precip. Humidity
Today
Oct 24

Rain
72 °F
54 °F
51%
70%
Monday
Oct 25

Clouds
65 °F
43 °F
0%
53%
Tuesday
Oct 26

Rain
78 °F
50 °F
33%
55%
Wednesday
Oct 27

Rain
65 °F
53 °F
100%
69%
Thursday
Oct 28

Clear
62 °F
51 °F
0%
31%
Friday
Oct 29

Clear
62 °F
48 °F
0%
38%
Saturday
Oct 30

Clear
64 °F
42 °F
0%
39%
Sunday
Oct 31

Clear
60 °F
47 °F
0%
44%
Monday
Nov 1

Clouds
55 °F
43 °F
0%
26%
Tuesday
Nov 2

Rain
60 °F
44 °F
100%
66%
Wednesday
Nov 3

Rain
54 °F
34 °F
100%
37%
Thursday
Nov 4

Clear
45 °F
27 °F
0%
26%
Friday
Nov 5

Clear
54 °F
31 °F
0%
26%
Saturday
Nov 6

Clouds
63 °F
42 °F
0%
38%
Sunday
Nov 7

Clear
50 °F
40 °F
0%
34%
Monday
Nov 8

Clouds
70 °F
37 °F
0%
44%

Temperature 8-14 Day Outlook



Precipitation 8-14 Day Outlook




Quick Links
El Dorado Lake News
El Dorado Lake Photos
El Dorado Lake Videos




About Us
Contact Us
Site Map
Search Site
Advertise With Us
   
ElDorado.LakesOnline.com
THE EL DORADO LAKE WEBSITE

Copyright 2021, Lakes Online
Privacy    |    Legal